Simultaneous Nadir Overpasses (SNOs) Predictions

Prediction of SNOs between GOES-16 and AQUA Satellite Orbit:

Table of predicted SNOs for the next 14.0 days since TLE Epoch: 10/8/2022
Index Date Time (GOES-16) GOES-16 Lat,Lon AQUA Lat,Lon Distance(km) Time Diff (sec)
1 10/08/2022 18:26:42 -0.06, -75.19 0.77, -71.19 454.24 80
2 10/09/2022 06:45:09 0.05, -75.19 0.28, -76.32 127.55 80
3 10/11/2022 06:35:01 0.05, -75.21 -0.39, -73.20 228.61 80
4 10/11/2022 18:53:35 -0.05, -75.22 -0.73, -78.35 356.17 80
5 10/13/2022 18:40:46 -0.05, -75.24 -0.07, -75.23 2.39 80
6 10/15/2022 18:30:37 -0.05, -75.26 0.63, -72.11 358.27 80
7 10/16/2022 06:49:02 0.04, -75.27 0.45, -77.23 222.69 80
8 10/18/2022 06:38:52 0.04, -75.29 -0.24, -74.11 135.72 80
9 10/18/2022 18:57:25 -0.03, -75.30 -0.90, -79.24 448.65 80
10 10/20/2022 06:23:22 0.03, -75.33 -0.90, -70.98 495.01 80
11 10/20/2022 18:44:35 -0.03, -75.34 -0.17, -76.13 89.05 80
